[Iaude] MPEC S14: 2016 RN40 [a=2.95,e=0.59,i=6.1,H=19.9]

mpec at mpc.eps.harvard.edu mpec at mpc.eps.harvard.edu
Mon Sep 19 11:33:17 EDT 2016


M.P.E.C. 2016-S14                                Issued 2016 Sept. 19, 15:29 UT
 
     The Minor Planet Electronic Circulars contain information on unusual
         minor planets and routine data on comets.  They are published
    on behalf of Division F of the International Astronomical Union by the
          Minor Planet Center, Smithsonian Astrophysical Observatory,
                          Cambridge, MA 02138, U.S.A.

             Prepared using the Tamkin Foundation Computer Network

                              MPC at CFA.HARVARD.EDU
            URL http://www.minorplanetcenter.net/    ISSN 1523-6714


                                   2016 RN40
 
Observations:
     K16R40N  C2016 09 06.51718 01 14 40.45 -22 27 52.3          17.9 RtES014F51
     K16R40N  C2016 09 06.52887 01 14 40.80 -22 27 35.1          18.1 RtES014F51
     K16R40N  C2016 09 12.39337 01 17 45.26 -20 03 14.0          18.7 VqES014703
     K16R40N  C2016 09 12.40620 01 17 45.37 -20 02 54.9          18.5 VqES014703
     K16R40N  C2016 09 12.41262 01 17 45.40 -20 02 45.3          18.8 VqES014703
     K16R40N* C2016 09 12.44387 01 17 45.81 -20 01 58.4          18.5 VqES014703
     K16R40N  C2016 09 12.45041 01 17 45.71 -20 01 49.1          18.8 VqES014703
     K16R40N  C2016 09 12.45696 01 17 45.72 -20 01 39.5          18.9 VqES014703
     K16R40N  C2016 09 12.46368 01 17 45.81 -20 01 29.6          19.0 VqES014703
     K16R40N  C2016 09 12.99973 01 17 56.59 -19 48 23.1                qES014246
     K16R40N  C2016 09 12.99990 01 17 56.55 -19 48 22.6                qES014246
     K16R40N  C2016 09 13.00060 01 17 56.58 -19 48 22.1                qES014246
     K16R40N  C2016 09 13.00083 01 17 56.53 -19 48 21.7                qES014246
     K16R40N  C2016 09 13.00129 01 17 56.60 -19 48 20.5                qES014246
     K16R40N  C2016 09 13.00222 01 17 56.56 -19 48 19.2                qES014246
     K16R40N  C2016 09 13.00258 01 17 56.62 -19 48 19.2                qES014246
     K16R40N  C2016 09 13.00337 01 17 56.54 -19 48 18.1                qES014246
     K16R40N KC2016 09 13.26459701 18 01.09 -19 41 50.0          19.4 VuES014H21
     K16R40N KC2016 09 13.27074501 18 01.11 -19 41 41.2          18.9 VuES014H21
     K16R40N KC2016 09 13.27618101 18 01.15 -19 41 33.3          19.1 VuES014H21
     K16R40N KC2016 09 13.41198 01 18 04.19 -19 37 28.2          18.3 RcES014R57
     K16R40N KC2016 09 13.41929 01 18 04.34 -19 37 19.1          18.7 RcES014R57
     K16R40N KC2016 09 13.42931 01 18 04.42 -19 37 03.5          19.3 RcES014R57
     K16R40N KC2016 09 13.43662 01 18 04.50 -19 36 53.8          18.6 RcES014R57
     K16R40N KC2016 09 14.56365 01 18 18.86 -19 09 19.8          18.7 VqES014E23
     K16R40N KC2016 09 14.57071 01 18 18.84 -19 09 09.9          19.1 VqES014E23
     K16R40N KC2016 09 14.57736 01 18 18.83 -19 08 59.9          18.8 VqES014E23
 
Observer details:
246 Klet Observatory-KLENOT.  Observers M. Tichy, J. Ticha.  Measurer M. Tichy.
    1.06-m KLENOT Telescope + CCD.
703 Catalina Sky Survey.  Observer D. C. Fuls.  Measurers E. J. Christensen,
    D. C. Fuls, A. R. Gibbs, A. D. Grauer, J. A. Johnson, R. A. Kowalski,
    S. M. Larson, G. J. Leonard, R. G. Matheny, R. L. Seaman, F. C. Shelly.
    0.68-m Schmidt + CCD.
E23 Arcadia.  Observer A. Hidas.  0.35-m f/1.9 reflector + CCD.
F51 Pan-STARRS 1, Haleakala.  Observers N. Primak, A. Schultz, T. Goggia,
    M. Willman, B. Gibson.  Measurers P. Veres, K. Chambers, S. Chastel,
    L. Denneau, H. Flewelling, M. Huber, E. Lilly, E. Magnier, R. Wainscoat,
    C. Waters, R. Weryk.  1.8-m Ritchey-Chretien + CCD.
H21 Astronomical Research Observatory, Westfield.  Observer R. Holmes.
    Measurers S. Foglia, L. Buzzi, T. Linder, R. Holmes.  0.61-m f/4.5
    astrograph + CCD.
R57 Aorangi Iti Observatory, Lake Tekapo.  Observers A. C. Gilmore,
    P. M. Kilmartin.  Measurer P. M. Kilmartin.  0.35-m f/11
    Schmidt-Cassegrain + CCD.
 
Orbital elements:
2016 RN40                                                Earth MOID = 0.2209 AU
Epoch 2016 July 31.0 TT = JDT 2457600.5                 MPC
M 357.27092              (2000.0)            P               Q
n   0.19496120     Peri.  264.78582     +0.82993605     +0.55004954
a   2.9455784      Node    61.81308     -0.46085789     +0.76998296
e   0.5924336      Incl.    6.05763     -0.31435036     +0.32337556
P   5.06           H   19.9           G   0.15           U   7
Residuals in seconds of arc
160906 F51  0.1+  0.0     160912 246  0.6+  0.1+    160913 H21  0.3-  0.4-
160906 F51  0.1-  0.0     160912 246  0.0   0.3+    160913 H21  0.1-  0.5-
160912 703  0.2-  0.2+    160913 246  0.3+  0.2-    160913 R57  1.1-  0.4+
160912 703  0.0   0.2+    160913 246  0.4-  0.1-    160913 R57  0.2-  1.0-
160912 703  0.2-  0.3+    160913 246  0.5+  0.4+    160913 R57  0.6-  0.3+
160912 703  2.3+  0.6+    160913 246  0.1-  0.3+    160913 R57  0.5-  0.5-
160912 703  0.1+  0.1+    160913 246  0.7+  0.2-    160914 E23  0.5+  0.3+
160912 703  0.5-  0.2-    160913 246  0.6-  0.3-    160914 E23  0.1+  0.0
160912 703  0.0   0.3-    160913 H21  0.1-  0.2-    160914 E23  0.1-  0.4+

Ephemeris:
2016 RN40                a,e,i = 2.95, 0.59, 6                   q = 1.2005
Date    TT    R. A. (2000) Decl.     Delta      r     Elong.  Phase     V
2016 08 20    00 46 40.5 -29 22 01   0.2441  1.2027   137.3    34.8    18.7
...
2016 09 04    01 12 31.0 -23 29 15   0.2618  1.2269   142.6    29.9    18.7
...
2016 09 12    01 17 37.6 -20 12 31   0.2784  1.2500   147.4    25.7    18.8
...
2016 09 18    01 18 36.2 -17 45 30   0.2946  1.2717   151.6    22.1    18.8
2016 09 19    01 18 34.7 -17 21 12   0.2976  1.2756   152.3    21.5    18.8
2016 09 20    01 18 30.4 -16 56 59   0.3008  1.2796   153.0    20.8    18.9
...
2016 09 26    01 17 15.7 -14 33 45   0.3220  1.3056   157.3    17.2    18.9
...
2016 10 04    01 14 14.3 -11 29 38   0.3572  1.3447   162.1    13.2    19.1
...
2016 10 19    01 08 39.7 -06 13 37   0.4477  1.4293   162.5    12.1    19.7

A. U. Tomatic                (C) Copyright 2016 MPC           M.P.E.C. 2016-S14




More information about the Iaude mailing list